Regional Weather Roundup
Issued by NWS Newport/Morehead, NC

Current Version | Previous Version | Graphics & Text | Print | Product List | Glossary On
Versions: 1 2 3 4 5 6 7 8 9 10 11 12 13 14 15 16 17 18 19 20 21 22 23 24 25 26 27 28 29 30 31 32 33 34 35 36 37 38 39 40 41 42 43 44 45 46 47 48 49 50
000 ASUS42 KMHX 300913 RWRMHX WEATHER ROUNDUP FOR EASTERN NORTH CAROLINA NATIONAL WEATHER SERVICE NEWPORT/MOREHEAD CITY NC 500 AM EDT TUE AUG 30 2016 NOTE: "FAIR" INDICATES FEW OR NO CLOUDS BELOW 12,000 FEET WITH NO SIGNIFICANT WEATHER AND/OR OBSTRUCTIONS TO VISIBILITY NCZ015>017-031-032-045>047-102-103-301000- NORTH COAST CITY SKY/WX TMP DP RH WIND PRES REMARKS EDENTON CLEAR N/A N/A N/A N3 30.04F ELIZABETH CITY N/A 71 69 93 N5 30.04S KITTY HAWK PTSUNNY 78 77 96 NE3 30.01S MANTEO MOCLDY 78 76 92 NE9 30.02S $$ NCZ045>047-081-094-103-104-301000- CENTRAL COAST CITY SKY/WX TMP DP RH WIND PRES REMARKS FRISCO PTCLDY 79 76 90 NE10G18 30.00R $$ NCZ095-097-098-100-101-301000- SOUTHERN COAST CITY SKY/WX TMP DP RH WIND PRES REMARKS BEAUFORT MOCLDY 74 71 91 N8 30.00S CEDAR ISLAND NOT AVBL JACKSONVILLE PTCLDY 72 69 90 N8 30.01F PINEY ISLAND NOT AVBL WILMINGTON CLEAR 72 70 93 N5 30.02S $$ NCZ011>013-027>030-043-044-078>080-089-090>093-098-301000- COASTAL PLAIN CITY SKY/WX TMP DP RH WIND PRES REMARKS AHOSKIE CLEAR 66 65 94 CALM 30.06F CLINTON CLEAR 72 72 100 N3 30.05F ELIZABETHTOWN CLEAR 73 73 100 CALM 30.04S GOLDSBORO CLEAR 70 70 100 N3 30.03F GREENVILLE PTCLDY 66 66 100 CALM 30.06S HAVELOCK CLEAR 75 71 87 N7 30.02S KENANSVILLE CLEAR 70 68 94 N3 30.04F KINSTON CLEAR 68 67 97 CALM 30.04F NEW BERN CLEAR 72 69 90 N6 30.02F RICHLANDS PTCLDY 71 70 96 N5 30.03F ROCKY MOUNT CLEAR 68 68 100 CALM 30.07S WASHINGTON CLEAR 67 66 97 CALM 30.04F WHITEVILLE CLEAR 72 71 95 CALM 30.03S $$ AMZ130-135-150-152-154-156-158-170-250-252-270-ANZ085-086-088-633-658-670-301000- MARINE OBSERVATIONS STATION/POSITION TIME TEMP WIND PRES WAVE SWELL AIR SEA DIR/SP/G HT/PER HT/PER (UTC) (F) (DEG/KT/KT) (MB) (FT/S) (FT/S) CHESAPEAKE LIGHT NOT AVBL 64 E VA BEACH 0850 79 80 50/ 14/ 17 1016.4 5/12 5/12 DUCK 0800 79 79 30/ 13/ 14 1016.3 2 E DUCK 0811 79 N/A 4/13 2/13 OREGON INLET 0800 79 82 30/ 11/ 15 1016.2 13E OREGON INLT 0900 80 N/A 5/13 5/13 HATTERAS CG 0800 80 83 20/ 15/ 19 1015.4 DIAMOND BUOY 0850 80 84 70/ 21/ 27 1014.6 7/11 5/11 CAPE LOOKOUT 0900 78 10/ 13/ 17 1015.4 BEAUFORT LAB 0800 76 81 350/ 10/ 12 1015.4 30 SE NEW RVR IN 0808 80 84 20/ 16/ 19 1015.4 30 SE NEW RVR IN 0825 84 N/A 4/12 2/12 27 SE WRIGHTSVLE 0808 81 84 360/ 12/ 17 1016.1 5 SE WRIGHTSVLE 0808 77 83 20/ 14/ 16 1017.0 225 S CAPE HAT 0850 82 84 220/ 14/ 16 1014.7 5/11 3/11 41 SE CHARLESTON 0850 82 85 20/ 10/ 12 1015.2 3/12 3/12 $$

USA.gov is the U.S. government's official web portal to all federal, state and local government web resources and services.